CST,Max TemperatureF,Mean TemperatureF,Min TemperatureF,Max Dew PointF,MeanDew PointF,Min DewpointF,Max Humidity, Mean Humidity, Min Humidity, Max Sea Level PressureIn, Mean Sea Level PressureIn, Min Sea Level PressureIn, Max VisibilityMiles, Mean VisibilityMiles, Min VisibilityMiles, Max Wind SpeedMPH, Mean Wind SpeedMPH, Max Gust SpeedMPH,PrecipitationIn, CloudCover, Events, WindDirDegrees
2013-1-1,25,20,14,18,10,6,82,66,45,30.36,30.28,30.19,10,10,8,10,6,,0.00,3,,337
2013-1-2,34,24,15,22,17,9,81,69,59,30.28,30.22,30.14,10,9,5,14,5,16,0.00,3,,238
2013-1-3,36,30,25,25,21,18,85,71,57,30.44,30.39,30.28,10,8,4,9,4,,0.00,4,,281
2013-1-4,43,32,21,25,22,16,85,67,47,30.43,30.34,30.25,10,9,5,13,5,22,0.00,0,,215
2013-1-5,45,38,32,31,27,22,69,63,55,30.24,30.17,30.06,10,10,9,18,9,29,0.00,4,Snow,229
2013-1-6,39,32,24,22,18,16,75,62,40,30.41,30.32,30.19,10,9,6,14,7,22,0.00,2,,278
2013-1-7,50,40,30,27,22,19,64,51,32,30.30,30.16,30.05,10,10,10,17,8,25,0.00,0,,200
2013-1-8,55,46,36,33,29,27,70,55,37,30.20,30.05,29.96,10,10,10,16,9,21,0.00,0,,208
2013-1-9,57,42,28,32,30,26,89,64,33,30.43,30.36,30.22,10,9,5,7,3,,0.00,0,,92
2013-1-10,51,44,39,48,40,27,100,87,51,30.33,29.94,29.73,10,4,1,13,7,22,0.08,7,Rain,93
2013-1-11,61,56,51,49,46,41,92,72,51,29.75,29.66,29.57,10,9,4,21,11,31,0.00,5,,197
2013-1-12,54,40,23,32,17,9,73,56,26,30.12,30.01,29.78,10,10,7,16,12,28,0.00,5,,328
2013-1-13,27,20,14,9,7,5,68,59,44,30.40,30.25,30.09,10,10,10,14,9,,0.00,2,,314
2013-1-14,32,23,14,11,8,5,80,55,32,30.55,30.46,30.43,10,10,10,8,2,,0.00,0,,20
2013-1-15,33,25,17,14,10,4,84,57,31,30.42,30.33,30.20,10,10,8,6,2,,0.00,2,,96
2013-1-16,46,32,19,27,19,10,81,58,41,30.21,30.11,30.03,10,10,10,13,5,,0.00,1,,221
2013-1-17,48,39,30,29,25,20,85,65,39,30.50,30.41,30.24,10,10,9,10,3,,0.00,0,,336
2013-1-18,57,46,35,29,27,26,70,49,32,30.41,30.20,30.02,10,10,10,25,13,36,0.00,0,,211
2013-1-19,62,53,42,30,28,25,58,43,25,30.25,30.06,29.97,10,10,10,17,12,28,0.00,0,,261
2013-1-20,39,30,21,27,10,6,70,47,34,30.44,30.35,30.29,10,10,10,14,9,16,0.00,1,,22
2013-1-21,21,19,17,10,5,-2,74,55,35,30.48,30.44,30.42,10,10,10,13,7,18,0.00,6,,328
2013-1-22,28,21,14,8,4,-1,62,48,34,30.46,30.38,30.30,10,10,10,9,7,,0.00,1,,78
2013-1-23,46,30,15,21,14,7,74,53,34,30.45,30.29,30.19,10,10,10,14,5,17,0.00,0,,18
2013-1-24,27,18,10,10,5,-1,61,49,39,30.57,30.39,30.21,10,10,10,15,11,21,0.00,3,,77
2013-1-25,48,36,24,23,15,9,72,47,29,30.26,30.21,30.15,10,10,8,8,4,,0.00,2,,282
2013-1-26,51,40,28,26,24,20,75,57,38,30.32,30.22,30.11,10,10,8,12,4,,0.00,0,,73
2013-1-27,62,52,42,54,43,27,83,74,47,30.08,29.89,29.75,10,9,5,20,9,29,0.01,8,Rain,179
2013-1-28,75,63,51,61,54,48,94,75,43,29.86,29.78,29.63,10,7,2,23,8,36,0.00,5,,203
2013-1-29,69,53,37,61,43,33,93,86,68,29.68,29.57,29.45,10,5,1,24,12,41,0.86,7,Rain-Thunderstorm,342
2013-1-30,36,30,24,34,21,12,93,74,59,30.00,29.76,29.49,10,6,1,21,12,37,0.01,8,Rain-Snow,312
2013-1-31,25,18,10,18,6,-2,74,60,49,30.54,30.23,29.98,10,10,9,21,9,29,0.00,4,Snow,299